Location: Krasnoyarskiy Pitomnik
(51.1333°N, 71.6167°E)
Time: 01:59:10
(UTC+00:00)

Vanguard 1 - Pass Details

Date: 20 April 2024
Orbit: 651 x 3826 km, 34.2° (Epoch: 19 May)

Event Time Altitude Azimuth Distance (km) Brightness Sun altitude
Exits shadow 20:26:07 11° 160° (SSE) 6,826 13.9 -24.9°
Maximum altitude 20:34:47 14° 137° (SE) 6,226 13.9 -24.5°
Drops below altitude 10° 20:43:06 10° 112° (ESE) 6,115 14.1 -23.9°
Sets 20:50:32 0° 91° (E) 6,524 14.6 -23.4°
